Hourly Data Report for January 02, 2022

TERRACE A
BRITISH COLUMBIA
Current Station Operator: NAVCAN

54°28'07.000" N
128°34'42.000" W
217.30 m
1068134
71951
YXT

Download Data

Hourly Data (January 2022)
Hourly Data Report for January 2, 2022
TIME
LST
Temp Definition
°C
Dew Point Definition
°C
Rel Hum Definition
%
Precip. Amount Definition
mm

Wind Dir Definition
10's deg

Wind Spd Definition
km/h
Visibility Definition
km
Stn Press Definition
kPa
Hmdx Definition


Wind Chill Definition


Weather Definition


00:00 0.0 -0.1 100 LegendMM 10 7 2.4 96.83   -2 Snow, Fog
01:00 -0.8 -0.9 99 LegendMM 10 12 1.6 96.92   -5 Snow, Fog
02:00 -1.6 -1.7 99 LegendMM 7 12 3.2 96.96   -6 Snow, Fog
03:00 -1.8 -1.9 99 LegendMM 7 11 1.6 97.03   -6 Snow, Fog
04:00 -2.8 -3.1 98 LegendMM 2 9 2.4 97.06   -6 Snow, Fog
05:00 -3.9 -4.5 96 LegendMM 3 13 1.6 97.04   -9 Snow, Fog
06:00 -4.3 -5.0 94 LegendMM 2 24 1.6 97.00   -11 Snow, Fog
07:00 -3.9 -4.9 93 LegendMM 3 21 4.8 96.98   -10 Snow Showers, Fog
08:00 -2.9 -4.4 89 LegendMM 1 17 4.8 96.97   -8 Snow Showers, Fog
09:00 -2.9 -4.3 90 LegendMM 2 22 4.8 96.98   -9 Snow Showers, Fog
10:00 -2.7 -4.0 91 LegendMM 3 21 8.1 96.98   -9 Snow Showers
11:00 -2.8 -4.7 87 LegendMM 2 13 32.2 96.93   -7 Snow Showers
12:00 -2.6 -5.0 84 LegendMM 2 23 32.2 96.86   -9 LegendNANA
13:00 -2.5 -3.4 93 LegendMM 36 2 32.2 96.84   -3 Mostly Cloudy
14:00 -1.8 -4.5 82 LegendMM 1 28 32.2 96.75   -9 LegendNANA
15:00 -2.4 -5.1 81 LegendMM 1 37 32.2 96.68   -10 LegendNANA
16:00 -2.0 -4.7 81 LegendMM 1 32 32.2 96.59   -9 Cloudy
17:00 -2.0 -4.5 83 LegendMM 1 39 32.2 96.51   -10 Blowing Snow
18:00 -1.7 -4.4 82 LegendMM 3 31 24.1 96.56   -9 Blowing Snow
19:00 -1.2 -4.4 79 LegendMM 3 22 24.1 96.54   -7 Blowing Snow
20:00 -1.5 -4.8 79 LegendMM 36 23 24.1 96.53   -8 LegendNANA
21:00 -1.3 -5.1 75 LegendMM 2 22 24.1 96.55   -7 LegendNANA
22:00 -0.7 -6.0 67 LegendMM 3 23 24.1 96.51   -7 Cloudy
23:00 -1.6 -6.7 69 LegendMM 4 17 24.1 96.59   -7 LegendNANA

Notes on Data Quality.

Legend

  • E = Estimated
  • M = Missing
  • NA = Not Available*
  • [empty] = Indicates an unobserved value
Date modified: